Location: Le Petit-Vavre
(46.5081°N, 1.5239°E)
Time: 20:18:34
(UTC+00:00)

Cosmos 1703 Rocket - Pass Details

Date: 03 March 2021
Orbit: 604 x 634 km, 82.5° (Epoch: 20 April)

Event Time Altitude Azimuth Distance (km) Brightness Sun altitude
Rises 18:47:26 0° 356° (N) 2,913 7.1 -11.9°
Reaches altitude 10° 18:49:46 10° 3° (N) 1,997 6.2 -12.3°
Maximum altitude 18:54:00 43° 76° (ENE) 868 3.9 -13.0°
Drops below altitude 10° 18:58:09 10° 148° (SSE) 1,964 5.8 -13.7°
Enters shadow 18:59:27 - 153° (SSE) 2,470 6.3 -14.0°
